User: anonymous   Login
Location: G�migny
(47.9646°N, 1.6950°E)
Time: 17:18:49
(UTC+00:00)
Language:

STARLINK-39 - Orbit

View from above orbital plane
View from above orbital plane
View from above satellite
View from above satellite

Ground track
Ground track

The orbit data is extracted from the following two-line orbital elements,

1 44253U 19029U   19346.25002315 -.00024075  00000-0 -13684-2 0  9994
2 44253  53.0048 344.3204 0001280  97.6278 250.4821 15.12135566 30594
Epoch (UTC): 12 December 2019 06:00:02
Eccentricity: 0.0001280
inclination: 53.0048°
perigee height: 529 km
apogee height: 530 km
right ascension of ascending node: 344.3204°
argument of perigee: 97.6278°
revolutions per day: 15.12135566
mean anomaly at epoch: 250.4821°
orbit number at epoch: 3059

The dashed part of the orbit path shows where the satellite is in the earth's shadow,  

DLR